Погода в Молодёжном

Россия / Республика Калмыкия     46°35′21″N   46°13′22″E
темп.,
°C
ветер,
м/с
пор.,
м/с
влажн.,
%
обл.,
%
осадки,
мм/ч
давл.,
гПа
погр.,
м
20 апреля, вт
вт2000:00+13ююз3495100 0.0 101578
03:00+12ююз2298100 0.0 101514
06:00+13юв4695100 0.0 1013207
09:00+16вюв7971100 0.1 1013443
12:00+21вюв111353100 0.0 10111247
15:00+21юв101348100 0.0 10101294
18:00+19вюв111756100 0.1 1009933
21:00+16вюв61368100 0.3 1012620
21 апреля, ср
ср2100:00+15вюв3575100 0.1 1012120
03:00+14в3483100 0.3 101378
06:00+14всв1181100 0.2 101539
09:00+13ссз6780100 0.7 1017580
12:00+12ссз6778100 0.4 1018446
15:00+13с5673100 0.6 1019510
18:00+13ссз4675100 0.1 1019440
21:00+11ссз478159 0.1 1020126
22 апреля, чт
чт2200:00+10ссз4683100 0.0 1020100
03:00+10ссз4981100 0.0 1020165
06:00+10с488183 0.0 1021245
09:00+15с6761100 0.0 1021629
12:00+15з3466100 0.8 1023668
15:00+18ссз355071 1.0 10211532
18:00+17с4654100 0.0 1021186
21:00+13св456756 0.0 102292
23 апреля, пт
пт2300:00+11св3471100 0.0 102257
03:00+10с3574100 0.0 102197
06:00+10с4974100 0.0 1021276
09:00+13с5657100 0.0 1022532
12:00+16с6745100 0.0 10211033
15:00+18с6739100 0.0 10211567
18:00+17ссв464783 0.0 1021208
21:00+14св225585 0.0 102119
24 апреля, сб
сб2400:00+14в115835 0.0 102010
03:00+12ююв22626 0.0 101910
06:00+13юв336199 0.0 101956
09:00+17ю455089 0.0 1019770
12:00+20ююз5542100 0.0 10181961
15:00+21юз6637100 0.0 10172072
18:00+19юз5740100 0.0 1017259
21:00+17ююз595194 0.0 1018201